Hourly Data Report for August 07, 2017

QUALICUM BEACH AIRPORT
BRITISH COLUMBIA

49°20'14.000" N
124°23'38.000" W
58.20 m
1026562
71766
VOQ

Download Data

Hourly Data (August 2017)
Hourly Data Report for August 7, 2017
TIME
LST
Temp Definition
°C
Dew Point Definition
°C
Rel Hum Definition
%
Precip. Amount Definition
mm

Wind Dir Definition
10's deg

Wind Spd Definition
km/h
Visibility Definition
km
Stn Press Definition
kPa
Hmdx Definition


Wind Chill Definition


Weather Definition


00:00 18.5 14.4 77 0.0 29 3   100.77     LegendNANA
01:00 17.3 14.3 82 0.0 27 5   100.79     LegendNANA
02:00 16.0 13.8 87 0.0 23 2   100.81     LegendNANA
03:00 15.5 13.5 88 0.0 27 3   100.84     LegendNANA
04:00 15.0 13.4 90 0.0 28 1   100.84     LegendNANA
05:00 14.9 13.4 91 0.0 32 4   100.89     LegendNANA
06:00 15.4 13.9 91 0.0 29 2   100.94     LegendNANA
07:00 17.9 14.9 82 0.0 32 7   100.98     LegendNANA
08:00 18.2 14.1 77 0.0 31 11   100.99     LegendNANA
09:00 18.8 14.4 76 0.0 31 12   100.98     LegendNANA
10:00 18.8 13.9 73 0.0 33 11   100.99     LegendNANA
11:00 20.2 14.1 68 0.0 34 12   100.98     LegendNANA
12:00 21.0 14.3 65 0.0 34 9   100.94 25   LegendNANA
13:00 21.6 14.3 63 0.0 33 11   100.89 25   LegendNANA
14:00 22.3 14.0 59 0.0 32 11   100.86 26   LegendNANA
15:00 24.1 14.4 55 0.0 33 8   100.82 28   LegendNANA
16:00 24.8 14.2 52 0.0 31 13   100.78 28   LegendNANA
17:00 25.7 13.5 47 0.0 33 10   100.76 29   LegendNANA
18:00 24.6 14.0 52 0.0 30 9   100.74 28   LegendNANA
19:00 24.5 14.1 52 0.0 29 7   100.73 28   LegendNANA
20:00 21.1 14.7 67 0.0 27 5   100.76 25   LegendNANA
21:00 21.5 14.9 66 0.0 30 9   100.81 25   LegendNANA
22:00 20.3 15.4 73 0.0 31 12   100.83 25   LegendNANA
23:00 18.6 14.9 79 0.0 29 4   100.85     LegendNANA

Notes on Data Quality.

Legend

  • E = Estimated
  • M = Missing
  • NA = Not Available*
  • [empty] = Indicates an unobserved value
Date modified: